TimeCDT,TemperatureF,Dew PointF,Humidity,Sea Level PressureIn,VisibilityMPH,Wind Direction,Wind SpeedMPH,Gust SpeedMPH,PrecipitationIn,Events,Conditions,WindDirDegrees,DateUTC
12:53 AM,52.0,50.0,93,29.92,8.0,ESE,4.6,-,N/A,,Clear,110,2013-05-08 05:53:00
1:11 AM,51.8,48.2,88,29.98,8.0,NW,17.3,25.3,N/A,Thunderstorm,Scattered Clouds,310,2013-05-08 06:11:00
1:23 AM,51.8,44.6,76,29.99,10.0,NNW,17.3,39.1,N/A,Thunderstorm,Mostly Cloudy,340,2013-05-08 06:23:00
1:38 AM,48.2,42.8,82,30.00,10.0,NNW,17.3,28.8,0.01,Rain-Thunderstorm,Light Rain,340,2013-05-08 06:38:00
1:49 AM,48.9,44.1,83,29.96,4.0,North,11.5,21.9,0.06,Rain,Heavy Rain,360,2013-05-08 06:49:00
2:10 AM,50.0,46.4,87,29.99,6.0,North,9.2,-,0.07,Rain-Thunderstorm,Thunderstorms and Rain,350,2013-05-08 07:10:00
2:25 AM,51.8,46.4,82,29.98,4.0,NNE,9.2,-,0.10,Rain,Rain,20,2013-05-08 07:25:00
2:53 AM,51.1,48.0,89,29.93,5.0,NE,10.4,-,0.20,Rain,Rain,40,2013-05-08 07:53:00
3:53 AM,51.1,48.9,92,29.88,10.0,South,6.9,-,0.10,Rain,Light Rain,190,2013-05-08 08:53:00
4:53 AM,52.0,48.0,86,29.86,10.0,North,9.2,-,0.11,,Mostly Cloudy,350,2013-05-08 09:53:00
5:53 AM,51.1,48.0,89,29.90,10.0,WSW,8.1,-,N/A,,Scattered Clouds,250,2013-05-08 10:53:00
6:53 AM,48.0,46.0,93,29.89,10.0,NW,3.5,-,N/A,,Clear,310,2013-05-08 11:53:00
7:53 AM,48.0,46.0,93,29.92,7.0,NW,4.6,-,N/A,,Clear,310,2013-05-08 12:53:00
8:53 AM,54.0,50.0,86,29.93,10.0,WNW,5.8,-,N/A,,Clear,300,2013-05-08 13:53:00
9:53 AM,59.0,51.1,75,29.93,10.0,WNW,4.6,-,N/A,,Clear,290,2013-05-08 14:53:00
10:53 AM,63.0,51.1,65,29.94,10.0,Calm,Calm,-,N/A,,Clear,0,2013-05-08 15:53:00
11:53 AM,68.0,50.0,52,29.93,10.0,NNW,5.8,-,N/A,,Partly Cloudy,330,2013-05-08 16:53:00
12:53 PM,70.0,50.0,49,29.92,10.0,NE,10.4,-,N/A,,Partly Cloudy,40,2013-05-08 17:53:00
1:53 PM,70.0,48.0,46,29.91,10.0,ENE,9.2,-,N/A,,Partly Cloudy,60,2013-05-08 18:53:00
2:53 PM,73.0,46.0,38,29.90,10.0,NE,9.2,16.1,N/A,,Clear,40,2013-05-08 19:53:00
3:53 PM,73.0,46.0,38,29.88,10.0,NNE,10.4,-,N/A,,Partly Cloudy,20,2013-05-08 20:53:00
4:53 PM,73.9,43.0,33,29.86,10.0,NE,13.8,-,N/A,,Partly Cloudy,50,2013-05-08 21:53:00
5:53 PM,73.9,45.0,35,29.86,10.0,NE,12.7,24.2,N/A,,Mostly Cloudy,50,2013-05-08 22:53:00
6:53 PM,72.0,41.0,33,29.89,10.0,NNE,16.1,19.6,N/A,,Clear,30,2013-05-08 23:53:00
7:53 PM,68.0,42.1,39,29.91,10.0,NNE,10.4,-,N/A,,Clear,30,2013-05-09 00:53:00
8:53 PM,62.1,45.0,53,29.94,10.0,NNE,10.4,-,N/A,,Clear,30,2013-05-09 01:53:00
9:53 PM,57.0,45.0,64,29.96,10.0,NE,4.6,-,N/A,,Clear,40,2013-05-09 02:53:00
10:53 PM,52.0,43.0,71,29.98,10.0,East,4.6,-,N/A,,Clear,90,2013-05-09 03:53:00
11:53 PM,55.0,44.1,67,29.94,10.0,NNE,13.8,-,N/A,,Clear,30,2013-05-09 04:53:00